Location: Duac?
(36.9744°N, 30.6500°E)
Time: 12:38:45
(UTC+00:00)

ATLAS 5 CENTAUR R/B - Pass Details

Date: 05 August 2024
Orbit: 411 x 1157 km, 63.3° (Epoch: 11 September)

Event Time Altitude Azimuth Distance (km) Brightness Sun altitude
Rises 21:07:25 0° 326° (NW) 3,078 6.1 -34.8°
Reaches altitude 10° 21:09:34 10° 325° (NW) 2,264 5.1 -34.9°
Enters shadow 21:12:24 35° 322° (NW) 1,286 3.5 -35.0°
